When you browse on this site, cookies collect data to enhance your experience and personalize the content and advertising you see.
Visit our Privacy Policy to learn more. By continuing to use the site, you agree to this use of cookies and data.
  • In Hungary
  • List of Countries
  • For 7 days
  • Water Temperature
  • Satellite Maps
  • Weather Map
  • News
  • Weather Widgets
  • user-avatar
    Login

    Hourly Weather Gross-Gerau

    Today, 22 February, Friday

    Time Temperature Precipitation Wind Pressure Humidity
    00:00 +10°C° 0 mm 1 mps 764 mmHg 85%
    01:00 +9°C° 0 mm 1 mps 764 mmHg 89%
    02:00 +9°C° 0 mm 1 mps 764 mmHg 90%
    03:00 +9°C° 0 mm 1 mps 764 mmHg 91%
    04:00 +9°C° 0 mm 1 mps 765 mmHg 92%
    05:00 +9°C° 0 mm 1 mps 765 mmHg 92%
    06:00 +9°C° 0 mm 1 mps 765 mmHg 93%
    07:00 +9°C° 0 mm 1 mps 766 mmHg 94%
    08:00 +10°C° 0 mm 1 mps 766 mmHg 92%
    09:00 +10°C° 0 mm 1 mps 767 mmHg 89%
    10:00 +11°C° 0 mm 1 mps 767 mmHg 87%
    11:00 +11°C° 0 mm 1 mps 767 mmHg 81%
    12:00 +12°C° 0 mm 2 mps 768 mmHg 76%
    13:00 +12°C° 0 mm 2 mps 768 mmHg 70%
    14:00 +12°C° 0 mm 2 mps 768 mmHg 67%
    15:00 +13°C° 0 mm 2 mps 768 mmHg 64%
    16:00 +13°C° 0 mm 2 mps 768 mmHg 61%
    17:00 +12°C° 0 mm 2 mps 768 mmHg 66%
    18:00 +10°C° 0 mm 2 mps 769 mmHg 71%
    19:00 +9°C° 0 mm 2 mps 769 mmHg 76%
    20:00 +8°C° 0 mm 2 mps 769 mmHg 77%
    21:00 +8°C° 0 mm 3 mps 769 mmHg 78%
    22:00 +7°C° 0 mm 3 mps 770 mmHg 79%
    23:00 +5°C° 0 mm 3 mps 770 mmHg 78%

    Tomorrow, 23 February, Saturday

    Time Temperature Precipitation Wind Pressure Humidity
    00:00 +4°C° 0 mm 3 mps 770 mmHg 77%
    01:00 +4°C° 0 mm 3 mps 771 mmHg 75%
    02:00 +3°C° 0 mm 3 mps 770 mmHg 76%
    03:00 +4°C° 0 mm 2 mps 770 mmHg 77%
    04:00 +3°C° 0 mm 2 mps 770 mmHg 77%
    05:00 +3°C° 0 mm 2 mps 770 mmHg 75%
    06:00 +2°C° 0 mm 2 mps 771 mmHg 72%
    07:00 +2°C° 0 mm 2 mps 771 mmHg 70%
    08:00 +2°C° 0 mm 2 mps 771 mmHg 66%
    09:00 +3°C° 0 mm 2 mps 771 mmHg 63%
    10:00 +3°C° 0 mm 3 mps 771 mmHg 60%
    11:00 +4°C° 0 mm 3 mps 771 mmHg 54%
    12:00 +7°C° 0 mm 3 mps 771 mmHg 48%
    13:00 +8°C° 0 mm 3 mps 770 mmHg 41%
    14:00 +8°C° 0 mm 3 mps 770 mmHg 38%
    15:00 +9°C° 0 mm 3 mps 770 mmHg 35%
    16:00 +9°C° 0 mm 3 mps 769 mmHg 32%
    17:00 +8°C° 0 mm 3 mps 770 mmHg 34%
    18:00 +7°C° 0 mm 3 mps 770 mmHg 35%
    19:00 +5°C° 0 mm 3 mps 770 mmHg 37%
    20:00 +5°C° 0 mm 2 mps 770 mmHg 37%
    21:00 +5°C° 0 mm 2 mps 770 mmHg 38%
    22:00 +4°C° 0 mm 2 mps 770 mmHg 38%
    23:00 +4°C° 0 mm 2 mps 770 mmHg 39%

    Day after tomorrow, 24 February, Sunday

    Time Temperature Precipitation Wind Pressure Humidity
    00:00 +3°C° 0 mm 2 mps 770 mmHg 41%
    01:00 +3°C° 0 mm 2 mps 771 mmHg 42%
    02:00 +3°C° 0 mm 2 mps 770 mmHg 43%
    03:00 +2°C° 0 mm 2 mps 770 mmHg 44%
    04:00 +2°C° 0 mm 2 mps 770 mmHg 45%
    05:00 +2°C° 0 mm 2 mps 770 mmHg 44%
    06:00 +2°C° 0 mm 2 mps 770 mmHg 44%
    07:00 +3°C° 0 mm 1 mps 770 mmHg 43%
    08:00 +4°C° 0 mm 1 mps 771 mmHg 40%
    09:00 +5°C° 0 mm 1 mps 771 mmHg 36%
    10:00 +6°C° 0 mm 1 mps 771 mmHg 32%
    11:00 +7°C° 0 mm 1 mps 771 mmHg 29%
    12:00 +9°C° 0 mm 1 mps 771 mmHg 26%
    13:00 +10°C° 0 mm 2 mps 771 mmHg 23%
    14:00 +10°C° 0 mm 2 mps 770 mmHg 24%
    15:00 +12°C° 0 mm 2 mps 770 mmHg 25%
    16:00 +12°C° 0 mm 2 mps 770 mmHg 26%
    17:00 +10°C° 0 mm 2 mps 770 mmHg 30%
    18:00 +9°C° 0 mm 2 mps 770 mmHg 34%
    19:00 +8°C° 0 mm 1 mps 771 mmHg 38%
    20:00 +8°C° 0 mm 1 mps 771 mmHg 39%
    21:00 +8°C° 0 mm 1 mps 771 mmHg 41%
    22:00 +7°C° 0 mm 1 mps 771 mmHg 43%
    23:00 +7°C° 0 mm 1 mps 771 mmHg 45%

    25 February, Monday

    Time Temperature Precipitation Wind Pressure Humidity
    00:00 +6°C° 0 mm 1 mps 771 mmHg 47%
    01:00 +6°C° 0 mm 1 mps 771 mmHg 49%
    02:00 +6°C° 0 mm 1 mps 771 mmHg 50%
    03:00 +5°C° 0 mm 1 mps 771 mmHg 52%
    04:00 +5°C° 0 mm 1 mps 771 mmHg 54%
    05:00 +5°C° 0 mm 1 mps 771 mmHg 55%
    06:00 +5°C° 0 mm 1 mps 772 mmHg 55%
    07:00 +5°C° 0 mm 1 mps 772 mmHg 56%
    08:00 +6°C° 0 mm 1 mps 772 mmHg 54%
    09:00 +7°C° 0 mm 1 mps 772 mmHg 51%
    10:00 +8°C° 0 mm 1 mps 772 mmHg 48%
    11:00 +10°C° 0 mm 1 mps 772 mmHg 46%
    12:00 +11°C° 0 mm 1 mps 771 mmHg 44%
    13:00 +13°C° 0 mm 2 mps 771 mmHg 42%
    14:00 +13°C° 0 mm 2 mps 771 mmHg 43%
    15:00 +14°C° 0 mm 2 mps 770 mmHg 44%
    16:00 +15°C° 0 mm 2 mps 770 mmHg 46%
    17:00 +13°C° 0 mm 2 mps 770 mmHg 52%
    18:00 +12°C° 0 mm 2 mps 770 mmHg 58%
    19:00 +10°C° 0 mm 2 mps 770 mmHg 64%
    20:00 +9°C° 0 mm 2 mps 770 mmHg 67%
    21:00 +9°C° 0 mm 2 mps 770 mmHg 70%
    22:00 +10°C° 0 mm 1 mps 770 mmHg 74%
    23:00 +9°C° 0 mm 1 mps 770 mmHg 75%

    26 February, Tuesday

    Time Temperature Precipitation Wind Pressure Humidity
    00:00 +9°C° 0 mm 1 mps 770 mmHg 77%
    01:00 +8°C° 0 mm 1 mps 770 mmHg 78%
    02:00 +8°C° 0 mm 1 mps 770 mmHg 79%
    03:00 +8°C° 0 mm 1 mps 769 mmHg 79%
    04:00 +7°C° 0 mm 1 mps 769 mmHg 80%
    05:00 +7°C° 0 mm 1 mps 769 mmHg 79%
    06:00 +7°C° 0 mm 1 mps 769 mmHg 79%
    07:00 +6°C° 0 mm 1 mps 769 mmHg 79%
    08:00 +8°C° 0 mm 1 mps 769 mmHg 73%
    09:00 +9°C° 0 mm 1 mps 769 mmHg 67%
    10:00 +10°C° 0 mm 1 mps 769 mmHg 61%
    11:00 +12°C° 0 mm 1 mps 769 mmHg 55%
    12:00 +12°C° 0 mm 0 mps 768 mmHg 49%
    13:00 +14°C° 0 mm 0 mps 768 mmHg 43%
    14:00 +14°C° 0 mm 0 mps 768 mmHg 42%
    15:00 +15°C° 0 mm 0 mps 767 mmHg 42%
    16:00 +16°C° 0 mm 1 mps 767 mmHg 42%
    17:00 +14°C° 0 mm 0 mps 767 mmHg 46%
    18:00 +12°C° 0 mm 0 mps 767 mmHg 51%
    19:00 +11°C° 0 mm 0 mps 767 mmHg 55%
    20:00 +10°C° 0 mm 0 mps 767 mmHg 57%
    21:00 +10°C° 0 mm 0 mps 767 mmHg 59%
    22:00 +9°C° 0 mm 0 mps 767 mmHg 61%
    23:00 +9°C° 0 mm 0 mps 767 mmHg 63%

    27 February, Wednesday

    Time Temperature Precipitation Wind Pressure Humidity
    00:00 +9°C° 0 mm 0 mps 767 mmHg 66%
    01:00 +8°C° 0 mm 0 mps 767 mmHg 68%
    02:00 +8°C° 0 mm 0 mps 766 mmHg 70%
    03:00 +8°C° 0 mm 0 mps 766 mmHg 72%
    04:00 +7°C° 0 mm 0 mps 766 mmHg 74%
    05:00 +7°C° 0 mm 0 mps 766 mmHg 75%
    06:00 +7°C° 0 mm 0 mps 765 mmHg 76%
    07:00 +6°C° 0 mm 0 mps 765 mmHg 77%
    08:00 +8°C° 0 mm 0 mps 765 mmHg 72%
    09:00 +9°C° 0 mm 0 mps 765 mmHg 67%
    10:00 +10°C° 0 mm 0 mps 765 mmHg 62%
    11:00 +12°C° 0 mm 0 mps 764 mmHg 57%
    12:00 +13°C° 0 mm 0 mps 764 mmHg 52%
    13:00 +15°C° 0 mm 0 mps 763 mmHg 46%
    14:00 +15°C° 0 mm 0 mps 763 mmHg 45%
    15:00 +15°C° 0 mm 0 mps 762 mmHg 44%
    16:00 +16°C° 0 mm 1 mps 761 mmHg 43%
    17:00 +15°C° 0 mm 1 mps 761 mmHg 48%
    18:00 +13°C° 0 mm 0 mps 761 mmHg 52%
    19:00 +11°C° 0 mm 0 mps 761 mmHg 57%
    20:00 +12°C° 0 mm 1 mps 761 mmHg 59%
    21:00 +11°C° 0 mm 1 mps 761 mmHg 61%
    22:00 +11°C° 0 mm 1 mps 760 mmHg 62%
    23:00 +10°C° 0 mm 1 mps 760 mmHg 65%
    Show more